TimeMST,TemperatureF,Dew PointF,Humidity,Sea Level PressureIn,VisibilityMPH,Wind Direction,Wind SpeedMPH,Gust SpeedMPH,PrecipitationIn,Events,Conditions,WindDirDegrees,DateUTC
12:14 AM,21.2,17.6,86,29.66,0.8,NNE,10.4,-,0.01,Snow,Light Snow,30,2013-01-11 07:14:00
12:19 AM,21.2,17.6,86,29.65,0.8,NE,11.5,-,0.02,Snow,Light Snow,40,2013-01-11 07:19:00
12:38 AM,19.4,17.6,93,29.66,1.0,NNE,16.1,-,0.03,,Mist,30,2013-01-11 07:38:00
12:52 AM,19.9,17.1,89,29.68,0.8,NNE,15.0,-,0.03,,Mist,20,2013-01-11 07:52:00
1:29 AM,19.4,17.6,93,29.65,1.0,NNE,11.5,-,0.03,,Mist,30,2013-01-11 08:29:00
1:52 AM,19.9,17.1,89,29.69,1.5,North,6.9,-,0.05,,Overcast,10,2013-01-11 08:52:00
2:00 AM,19.4,17.6,93,29.66,1.2,North,6.9,-,N/A,,Overcast,360,2013-01-11 09:00:00
2:20 AM,19.4,17.6,93,29.66,1.8,North,6.9,-,0.01,Snow,Light Snow,360,2013-01-11 09:20:00
2:44 AM,19.4,17.6,93,29.67,2.0,NNE,6.9,-,0.02,Snow,Light Snow,20,2013-01-11 09:44:00
2:52 AM,19.9,17.1,89,29.71,3.0,NNE,6.9,-,0.02,Snow,Light Snow,20,2013-01-11 09:52:00
2:59 AM,19.4,17.6,93,29.67,5.0,NNE,6.9,-,0.00,Snow,Light Snow,20,2013-01-11 09:59:00
3:30 AM,19.4,15.8,86,29.68,3.0,NNE,4.6,-,0.00,Snow,Light Snow,30,2013-01-11 10:30:00
3:45 AM,19.4,15.8,86,29.68,1.0,NNE,4.6,-,0.01,Snow,Light Snow,20,2013-01-11 10:45:00
3:52 AM,19.0,16.0,88,29.72,0.8,Calm,Calm,-,0.01,Snow,Light Snow,0,2013-01-11 10:52:00
4:14 AM,19.4,15.8,86,29.69,1.8,Calm,Calm,-,0.02,Snow,Light Snow,0,2013-01-11 11:14:00
4:26 AM,19.4,15.8,86,29.69,4.0,Calm,Calm,-,0.02,Snow,Light Snow,0,2013-01-11 11:26:00
4:52 AM,18.0,14.0,84,29.76,10.0,Calm,Calm,-,0.02,,Overcast,0,2013-01-11 11:52:00
5:52 AM,17.1,12.9,84,29.81,10.0,SW,3.5,-,N/A,,Overcast,220,2013-01-11 12:52:00
6:52 AM,16.0,10.9,81,29.84,10.0,South,10.4,-,N/A,,Overcast,180,2013-01-11 13:52:00
7:52 AM,14.0,9.0,80,29.88,10.0,SSE,6.9,-,N/A,,Overcast,160,2013-01-11 14:52:00
8:52 AM,12.0,6.1,77,29.93,10.0,SSW,10.4,-,N/A,,Overcast,210,2013-01-11 15:52:00
9:52 AM,12.0,3.9,70,29.96,10.0,SSW,10.4,-,N/A,,Partly Cloudy,210,2013-01-11 16:52:00
10:52 AM,15.1,3.0,59,29.97,10.0,South,13.8,-,N/A,,Clear,190,2013-01-11 17:52:00
11:52 AM,16.0,6.1,65,29.97,10.0,SSW,12.7,-,N/A,,Clear,200,2013-01-11 18:52:00
12:52 PM,19.0,8.1,62,29.95,10.0,SSW,13.8,-,N/A,,Clear,210,2013-01-11 19:52:00
1:52 PM,19.9,9.0,62,29.95,10.0,South,10.4,-,N/A,,Clear,190,2013-01-11 20:52:00
2:52 PM,19.9,9.0,62,29.96,10.0,SSW,5.8,-,N/A,,Mostly Cloudy,210,2013-01-11 21:52:00
3:52 PM,23.0,9.0,55,29.95,10.0,South,6.9,-,N/A,,Overcast,180,2013-01-11 22:52:00
5:52 PM,10.9,3.0,70,30.02,10.0,South,5.8,-,N/A,,Scattered Clouds,170,2013-01-12 00:52:00
6:52 PM,6.1,-0.0,76,30.06,10.0,SW,6.9,-,N/A,,Scattered Clouds,230,2013-01-12 01:52:00
7:52 PM,3.0,-2.9,76,30.09,10.0,Calm,Calm,-,N/A,,Clear,0,2013-01-12 02:52:00
8:52 PM,3.0,-2.9,76,30.10,10.0,North,4.6,-,N/A,,Clear,10,2013-01-12 03:52:00
9:52 PM,1.9,-4.0,76,30.13,10.0,West,5.8,-,N/A,,Overcast,280,2013-01-12 04:52:00
10:52 PM,1.9,-5.1,72,30.12,10.0,WNW,3.5,-,N/A,,Scattered Clouds,300,2013-01-12 05:52:00
11:52 PM,-2.0,-7.1,79,30.14,10.0,Calm,Calm,-,N/A,,Clear,0,2013-01-12 06:52:00